Regional Weather Roundup
Issued by NWS

Home | Current Version | Previous Version | Text Only | Print | Product List | Glossary On
Versions: 1 2 3 4 5 6 7 8 9 10 11 12 13 14 15 16 17 18 19 20 21 22 23 24 25 26 27 28 29 30 31 32 33 34 35 36 37 38 39 40 41 42 43 44 45 46 47 48 49 50
000
ASUS43 KMKX 081300
RWRWI

WISCONSIN REGIONAL WEATHER ROUNDUP
NATIONAL WEATHER SERVICE MILWAUKEE/SULLIVAN WI
700 AM CST THU DEC 08 2016

NOTE: "FAIR" INDICATES FEW OR NO CLOUDS BELOW 12,000 FEET WITH NO
SIGNIFICANT WEATHER AND/OR OBSTRUCTIONS TO VISIBILITY.

WIZ001-002-006>008-014>016-023>028-081400-
NORTHWEST WISCONSIN

CITY           SKY/WX    TMP DP  RH WIND       PRES   REMARKS
SUPERIOR ARPT  CLOUDY    23  17  76 NW14G22   30.16R WCI  11
ASHLAND        CLOUDY    22  18  85 NW10      30.10R WCI  11
HAYWARD        FLURRIES  19  16  88 VRB6      30.11R WCI  11
SIREN          CLOUDY    21  17  85 NW10      30.17R WCI  10
CUMBERLAND     LGT SNOW  21  18  86 NW12      30.13R WCI   9
RICE LAKE      FLURRIES  20  17  86 W10       30.15R WCI   9
CHETEK         FLURRIES  19  16  87 W8        30.14R WCI   9
LADYSMITH      CLOUDY    21  18  86 W7        30.11R WCI  12
EAU CLAIRE     NOT AVBL
MENOMONIE      CLOUDY    20  16  84 W14       30.18R WCI   6
NEW RICHMOND   CLOUDY    17  14  86 W9        30.19R FOG     WCI   6
OSCEOLA        MOCLDY    19  16  85 W10       30.23R WCI   8
$$

WIZ003>005-009-010-017-018-081400-
NORTH CENTRAL WISCONSIN

CITY           SKY/WX    TMP DP  RH WIND       PRES   REMARKS
MANITOWISH WTR LGT SNOW  17  17 100 W5        29.97R WCI  10
ARBOR VITAE    LGT SNOW  22  19  87 NW7       29.97R WCI  13
WOODRUFF       LGT SNOW  22  19  87 NW7       29.97R WCI  13
RHINELANDER    CLOUDY    19  15  84 W9        29.98R WCI   8
EAGLE RIVER    MOCLDY    18  14  83 W10       29.94R WCI   6
LAND O LAKES   LGT SNOW  19  17  91 W7        29.95R WCI  10
PHILLIPS       CLOUDY    19  17  89 NW12G18   30.02R WCI   7
TOMAHAWK       FLURRIES  17  13  86 W9        30.01R WCI   5
MEDFORD        FLURRIES  15  11  85 W10       30.05R WCI   2
MERRILL        FLURRIES  17  13  84 W9        30.05R WCI   6
$$

WIZ029-030-035-036-043>047-081400-
CENTRAL WISCONSIN

CITY           SKY/WX    TMP DP  RH WIND       PRES   REMARKS
WAUSAU         FLURRIES  15  12  88 W9        30.05R WCI   3
MOSINEE        NOT AVBL
MARSHFIELD     LGT SNOW  14  10  84 W14       30.08R FOG     WCI  -1
STEVENS POINT  LGT SNOW  14  10  82 W10G18    30.09R WCI   1
WAUPACA        MOCLDY    19  12  74 W13G24    30.10R WCI   6
WAUTOMA        FLURRIES  16  12  84 W9        30.13R WCI   4
WISC RAPIDS    LGT SNOW  16  11  80 W7        30.12R WCI   6
CAMP DOUGLAS   NOT AVBL
$$

WIZ011>013-019>022-031-037>040-048>050-081400-
NORTHEAST WISCONSIN

CITY           SKY/WX    TMP DP  RH WIND       PRES   REMARKS
ANTIGO         FLURRIES  15  12  88 W13       29.99R WCI   1
SHAWANO        CLOUDY    20  13  74 W9        30.05R WCI   9
OCONTO         CLOUDY    19  11  71 W14G22    30.01S WCI   5
STURGEON BAY   CLOUDY    20  14  77 W20       30.00R WCI   4
GREEN BAY      CLOUDY    20  14  77 W18G24    30.04S WCI   5
MANITOWOC      NOT AVBL
APPLETON       FLURRIES  18  10  73 W18G25    30.05R WCI   2
CLINTONVILLE   CLOUDY    19  12  73 W14G22    30.06R WCI   6
OSHKOSH        CLOUDY    18  10  71 W9        30.09R WCI   7
$$

WIZ032>034-041-042-053>061-081400-
SOUTHWEST WISCONSIN

CITY           SKY/WX    TMP DP  RH WIND       PRES   REMARKS
LA CROSSE      CLOUDY    19  12  74 W13       30.23R WCI   6
SPARTA         FLURRIES  17  13  84 W6        30.18R WCI   8
VIROQUA        CLOUDY    14  11  86 W10       30.17S WCI   2
BOSCOBEL       FLURRIES  16   9  74 SW12      30.26R WCI   3
PRAIRIE DU CHI CLOUDY    15   8  73 W8        30.27R WCI   4
PLATTEVILLE    MOCLDY    13   8  81 W16G24    30.24R WCI  -3
$$

WIZ056-057-062-063-064-067-068-081400-
SOUTH CENTRAL WISCONSIN

CITY           SKY/WX    TMP DP  RH WIND       PRES   REMARKS
REEDSBURG      FLURRIES  15  10  80 W9        30.18R WCI   3
BARABOO/DELLS  FLURRIES  14   9  78 W9G16     30.16R WCI   2
LONE ROCK      NOT AVBL
MINERAL POINT  FLURRIES  14  10  85 W15G23    30.19R WCI  -1
MADISON        FLURRIES  15   7  70 W9        30.18R WCI   3
MIDDLETON      CLOUDY    16  10  77 W15       30.19R WCI   2
WATERTOWN      CLOUDY    16  10  75 W16G23    30.15R WCI   1
MONROE         PTCLDY    14   9  79 W18G25    30.19R WCI  -3
JANESVILLE     NOT AVBL
$$

WIZ051-052-058>065-066-070>072-081400-
SOUTHEAST WISCONSIN

CITY           SKY/WX    TMP DP  RH WIND       PRES   REMARKS
MILWAUKEE      CLOUDY    20   9  62 W16G22    30.14R WCI   6
WAUKESHA       CLOUDY    16   9  73 W17G25    30.14R WCI   0
MILWAUKEE/TIMM NOT AVBL
RACINE         CLOUDY    19   9  65 W15G23    30.16R WCI   5
BURLINGTON     FLURRIES  16  10  75 W14G21    30.17R WCI   2
KENOSHA        FLURRIES  18  10  71 W18G29    30.16R WCI   2
FOND DU LAC    FLURRIES  18   9  68 W14G21    30.10S WCI   4
SHEBOYGAN      FLURRIES  19  11  70 W14       30.08R WCI   6
WEST BEND      FLURRIES  19  12  73 W17G23    30.10R WCI   4
JUNEAU         FLURRIES  16  11  80 SW15      30.14R WCI   1
$$

LSZ147-162-081400-
LAKE SUPERIOR

STATION/POSITION TIME  TEMP    WIND        PRES    WAVE
                       AIR SEA DIR/SP/G            HT/PER
                 (UTC) (F)     (DEG/KT/KT) (MB)    (FT/S)
DEVILS ISLAND    1200   27     340/ 24/ 29 1019.0R
PORT WING        1240   27     330/ 18/ 26 1020.3R
SAXON HARBOR     1230   29     340/ 22/ 26 1017.6R
$$

LMZ867-665-643>646-081400-
LAKE MICHIGAN

STATION/POSITION TIME  TEMP    WIND        PRES    WAVE
                       AIR SEA DIR/SP/G            HT/PER
                 (UTC) (F)     (DEG/KT/KT) (MB)    (FT/S)
CHAMBERS ISLAND  1240   21     240/ 11/ 24 1014.2R
NORTHPORT PIER   1240   23     270/  6/ 17 1014.2R
SISTER BAY       1206   24     290/ 21/ 26   N/A
ALGOMA LAKESHORE 1221          250/ 11/ 17   N/A
KEWAUNEE LAKESHO 1230   19     310/ 16/ 23 1016.1R
SHEBOYGAN LAKESH 1200   20     260/ 19/ 23 1019.1R
PORT WASHINGTON  1240   20     290/ 13/ 20 1020.7R
MILWAUKEE LAKESH 1230   20     280/ 15/ 20   N/A
KENOSHA   LAKESH 1200   19     270/ 17/ 24 1021.0
$$

TC  - TEMPERATURE IN CELSIUS
VSB - VISIBILITY IN STATUTE MILES
WCI - WIND CHILL INDEX
HX  - HEAT INDEX





USA.gov is the U.S. government's official web portal to all federal, state and local government web resources and services.